Weather History for KRUE - December, 2012

Change the Weather History Date:

Friday, December 28, 2012

  Actual Average (KHOT) Record (KHOT)
Temperature  
Mean Temperature 34 °F -  
Max Temperature 37 °F 51 °F 68 °F (1971)
Min Temperature 32 °F 31 °F 22 °F (1950)
Degree Days  
Heating Degree Days 30    
Moisture  
Dew Point 33 °F    
Average Humidity 92    
Maximum Humidity 100    
Minimum Humidity 81    
Precipitation  
Precipitation 0.40 in - - ()
Sea Level Pressure  
Sea Level Pressure 29.97 in    
Wind  
Wind Speed 2 mph (WNW)    
Max Wind Speed 12 mph    
Max Gust Speed 18 mph    
Visibility 4 miles    
Events Rain    
Averages and records for this station are not official NWS values.
T = Trace of Precipitation, MM = Missing Value Source: NWS Daily Summary

Daily Weather History Graph

Daily Weather History Graph

Search for Another Location

Airport or City:

Trip Planner

Search our weather history database for the weather conditions in past years. The results will help you decide how hot, cold, wet, or windy it might be!

Date:

Astronomy

Dec. 28, 2012 Rise Set
Actual Time 7:20 AM CST 5:08 PM CST
Civil Twilight 6:51 AM CST 5:36 PM CST
Nautical Twilight 6:20 AM CST 6:08 PM CST
Astronomical Twilight 5:49 AM CST 6:39 PM CST
Moon 5:43 PM CST (12/28) 7:16 AM CST (12/28)
Length of Visible Light 10h 44m
Length of Day
9h 48m
Full, 100% of the Moon is Illuminated
Dec 28
Full
Jan 4
Last Quarter
Jan 11
New
Jan 18
First Quarter
Jan 26
Full

Hourly Weather History & Observations

Time (CST) Temp. Windchill Dew Point Humidity Pressure Visibility Wind Dir Wind Speed Gust Speed Precip Events Conditions
12:11 AM 32.0 °F - 30.2 °F 93% 30.04 in 2.5 mi Calm Calm - 0.00 in   Overcast
12:29 AM 33.8 °F - 30.2 °F 87% 30.04 in 2.5 mi Calm Calm - 0.01 in   Overcast
12:38 AM 33.8 °F - 30.2 °F 87% 30.04 in 3.0 mi Calm Calm - 0.02 in   Overcast
12:49 AM 33.8 °F - 30.2 °F 87% 30.03 in 3.0 mi Calm Calm - 0.02 in   Overcast
12:53 AM 33.1 °F - 30.9 °F 92% 30.03 in 3.0 mi Calm Calm - 0.02 in   Overcast
1:26 AM 33.8 °F - 30.2 °F 87% 30.01 in 4.0 mi Calm Calm - N/A   Overcast
1:49 AM 33.8 °F - 30.2 °F 87% 30.02 in 7.0 mi Calm Calm - N/A   Overcast
1:53 AM 33.1 °F 30.0 °F 30.9 °F 92% 30.01 in 6.0 mi East 3.5 mph - N/A   Overcast
2:41 AM 33.8 °F - 30.2 °F 87% 30.01 in 2.5 mi Calm Calm - N/A   Overcast
2:53 AM 33.1 °F - 30.9 °F 92% 30.01 in 2.5 mi Calm Calm - 0.01 in   Overcast
3:05 AM 33.8 °F - 32.0 °F 93% 30.01 in 1.8 mi Calm Calm - 0.00 in   Overcast
3:13 AM 33.8 °F - 32.0 °F 93% 30.01 in 1.5 mi Calm Calm - 0.01 in   Overcast
3:29 AM 33.8 °F - 32.0 °F 93% 30.01 in 2.0 mi Calm Calm - 0.02 in   Overcast
3:53 AM 34.0 °F - 32.0 °F 92% 30.01 in 2.5 mi Calm Calm - 0.03 in   Overcast
4:20 AM 33.8 °F 30.8 °F 30.2 °F 87% 30.00 in 3.0 mi North 3.5 mph - 0.01 in   Overcast
4:36 AM 33.8 °F 30.8 °F 32.0 °F 93% 29.99 in 2.5 mi NNW 3.5 mph - 0.02 in   Overcast
4:53 AM 34.0 °F - 32.0 °F 92% 29.99 in 2.5 mi Calm Calm - 0.03 in   Overcast
4:57 AM 33.8 °F - 32.0 °F 93% 29.99 in 3.0 mi Calm Calm - 0.00 in   Overcast
5:18 AM 33.8 °F - 32.0 °F 93% 29.99 in 2.5 mi Calm Calm - 0.01 in   Overcast
5:31 AM 33.8 °F 30.8 °F 32.0 °F 93% 29.99 in 1.8 mi North 3.5 mph - 0.03 in Rain Rain
5:41 AM 33.8 °F - 32.0 °F 93% 29.98 in 2.0 mi Calm Calm - 0.04 in   Overcast
5:53 AM 34.0 °F - 33.1 °F 96% 29.98 in 2.5 mi Calm Calm - 0.04 in   Overcast
6:04 AM 33.8 °F - 33.8 °F 100% 29.98 in 4.0 mi Calm Calm - 0.00 in   Overcast
6:16 AM 33.8 °F - 33.8 °F 100% 29.97 in 2.0 mi Calm Calm - 0.00 in   Overcast
6:27 AM 33.8 °F - 32.0 °F 93% 29.96 in 4.0 mi Calm Calm - 0.00 in   Overcast
6:42 AM 33.8 °F - 32.0 °F 93% 29.95 in 3.0 mi Calm Calm - 0.00 in   Overcast
6:53 AM 34.0 °F - 33.1 °F 96% 29.97 in 4.0 mi Calm Calm - 0.00 in   Overcast
7:28 AM 33.8 °F 30.8 °F 32.0 °F 93% 29.96 in 3.0 mi West 3.5 mph - N/A   Overcast
7:39 AM 33.8 °F - 32.0 °F 93% 29.96 in 2.5 mi Calm Calm - 0.00 in   Overcast
7:44 AM 33.8 °F - 33.8 °F 100% 29.96 in 3.0 mi Calm Calm - 0.01 in   Overcast
7:53 AM 34.0 °F - 33.1 °F 96% 29.97 in 3.0 mi Calm Calm - 0.01 in   Overcast
8:20 AM 33.8 °F - 33.8 °F 100% 29.98 in 1.5 mi Calm Calm - 0.03 in Rain Rain
8:34 AM 35.6 °F 32.8 °F 33.8 °F 93% 29.96 in 1.5 mi NNE 3.5 mph - 0.05 in Rain Rain
8:53 AM 35.1 °F 32.2 °F 33.1 °F 92% 29.98 in 1.8 mi WNW 3.5 mph - 0.07 in   Overcast
9:18 AM 35.6 °F - 33.8 °F 93% 29.97 in 1.5 mi Calm Calm - 0.03 in   Overcast
9:41 AM 35.6 °F - 33.8 °F 93% 29.96 in 2.0 mi Calm Calm - 0.04 in   Overcast
9:53 AM 35.1 °F - 34.0 °F 96% 29.97 in 2.0 mi Calm Calm - 0.05 in   Overcast
10:11 AM 35.6 °F - 33.8 °F 93% 29.97 in 2.0 mi Calm Calm - 0.02 in Rain Rain
10:20 AM 35.6 °F - 33.8 °F 93% 29.97 in 1.8 mi Calm Calm - 0.04 in Rain Rain
10:22 AM 35.6 °F - 33.8 °F 93% 29.96 in 1.5 mi Calm Calm - 0.04 in Rain Rain
10:32 AM 35.6 °F - 33.8 °F 93% 29.97 in 1.8 mi Calm Calm - 0.05 in Rain Light Rain
10:36 AM 35.6 °F - 33.8 °F 93% 29.98 in 2.5 mi Calm Calm - 0.05 in   Overcast
10:40 AM 35.6 °F - 33.8 °F 93% 29.97 in 3.0 mi Calm Calm - 0.05 in   Overcast
10:50 AM 35.6 °F 32.8 °F 35.6 °F 100% 29.95 in 2.0 mi SE 3.5 mph - 0.06 in   Overcast
10:53 AM 36.0 °F 32.1 °F 35.1 °F 97% 29.95 in 2.0 mi East 4.6 mph - 0.06 in   Overcast
11:08 AM 37.4 °F 31.4 °F 33.8 °F 87% 29.92 in 5.0 mi ENE 8.1 mph - 0.02 in   Overcast
11:15 AM 37.4 °F - 33.8 °F 87% 29.94 in 9.0 mi Calm Calm - 0.02 in   Overcast
11:26 AM 37.4 °F - 35.6 °F 93% 29.93 in 10.0 mi Calm Calm - 0.02 in   Overcast
11:36 AM 37.4 °F 34.9 °F 35.6 °F 93% 29.92 in 9.0 mi Variable 3.5 mph - 0.02 in   Overcast
11:53 AM 37.0 °F - 35.1 °F 93% 29.91 in 6.0 mi Calm Calm - 0.03 in   Overcast
12:08 PM 37.4 °F - 35.6 °F 93% 29.90 in 5.0 mi Calm Calm - 0.00 in   Overcast
12:53 PM 37.9 °F 35.5 °F 35.1 °F 89% 29.89 in 8.0 mi NW 3.5 mph - 0.01 in   Overcast
1:53 PM 37.0 °F 32.4 °F 35.1 °F 93% 29.87 in 3.0 mi NW 5.8 mph - N/A   Overcast
2:05 PM 37.4 °F 32.8 °F 35.6 °F 93% 29.88 in 2.0 mi NW 5.8 mph - N/A   Overcast
2:09 PM 37.4 °F 32.1 °F 35.6 °F 93% 29.88 in 1.8 mi NW 6.9 mph - N/A   Overcast
2:22 PM 37.4 °F 30.8 °F 35.6 °F 93% 29.88 in 2.5 mi NW 9.2 mph - 0.01 in   Overcast
2:40 PM 37.4 °F 30.3 °F 35.6 °F 93% 29.88 in 3.0 mi NW 10.4 mph - 0.02 in   Overcast
2:53 PM 37.0 °F 29.8 °F 35.1 °F 93% 29.88 in 3.0 mi WNW 10.4 mph - 0.02 in   Overcast
3:53 PM 37.0 °F 32.4 °F 35.1 °F 93% 29.89 in 4.0 mi WNW 5.8 mph - 0.02 in   Overcast
4:53 PM 37.9 °F 31.5 °F 35.1 °F 89% 29.90 in 4.0 mi NW 9.2 mph - 0.00 in   Overcast
5:53 PM 37.9 °F 33.5 °F 36.0 °F 93% 29.91 in 5.0 mi West 5.8 mph - N/A   Overcast
6:53 PM 37.0 °F 33.3 °F 35.1 °F 93% 29.94 in 4.0 mi Variable 4.6 mph - N/A   Overcast
7:11 PM 37.4 °F 31.4 °F 35.6 °F 93% 29.95 in 4.0 mi West 8.1 mph - N/A   Overcast
7:42 PM 37.4 °F 33.8 °F 35.6 °F 93% 29.96 in 4.0 mi West 4.6 mph - N/A   Overcast
7:53 PM 37.0 °F 30.4 °F 34.0 °F 89% 29.96 in 5.0 mi WNW 9.2 mph - N/A   Overcast
8:27 PM 37.4 °F 30.8 °F 33.8 °F 87% 29.98 in 6.0 mi WNW 9.2 mph - N/A   Mostly Cloudy
8:53 PM 36.0 °F 29.6 °F 33.1 °F 89% 29.99 in 6.0 mi West 8.1 mph 16.1 mph N/A   Overcast
9:14 PM 35.6 °F 29.2 °F 33.8 °F 93% 29.99 in 6.0 mi West 8.1 mph - N/A   Overcast
9:53 PM 36.0 °F 32.1 °F 33.1 °F 89% 30.01 in 6.0 mi West 4.6 mph - N/A   Overcast
10:53 PM 35.1 °F 27.9 °F 30.9 °F 85% 30.03 in 7.0 mi West 9.2 mph 18.4 mph N/A   Overcast
11:10 PM 35.6 °F 27.5 °F 30.2 °F 81% 30.03 in 8.0 mi West 11.5 mph 18.4 mph N/A   Overcast
11:53 PM 35.1 °F 27.4 °F 30.0 °F 82% 30.04 in 8.0 mi West 10.4 mph - N/A   Overcast